#timestamp,LO_Frequency,Hit,StdDev 
1513497615.8,286047002.8,N
1513497635.6,286047002.4,N
1513497655.5,286047002.5,N
1513497675.3,286047003.5,N
1513497695.1,286047004.0,N
1513497715.9,286047001.4,N
1513497735.7,286046999.1,N
1513497755.5,286047000.4,N
1513497775.4,286046998.7,N
1513497795.2,286046993.4,N
1513497815.0,286046994.7,N
1513497815.9,286046994.7,N
1513497835.8,286046993.7,N
1513497855.6,286046992.2,N
1513497875.4,286046989.3,N
1513497895.2,286046990.7,N
1513497915.1,286046989.5,N
1513497916.0,286046989.5,N
1513497935.8,286046989.2,N
1513497955.6,286046990.9,N
1513497975.5,286046991.0,N
1513497995.3,286046995.6,N
1513498015.1,286046996.9,N
1513498035.9,286047001.2,N
1513498055.7,286046999.8,N
1513498075.5,286046997.4,N
1513498095.4,286046997.1,N
1513498115.2,286046997.7,N
1513498135.0,286046995.4,N
1513498135.9,286046995.4,N
1513498155.8,286046994.2,N
1513498175.6,286046988.7,N
1513498195.4,286046992.8,N
1513498215.2,286046993.9,N
1513498235.1,286046994.2,N
1513498236.0,286046994.2,N
1513498255.8,286046989.8,N
1513498275.6,286046990.3,N
1513498295.5,286046987.4,Y
1513498315.3,286046994.0,P
1513498335.1,286046995.0,P
1513498355.9,286046990.1,P
1513498375.7,286046991.2,Y
1513498395.6,286046995.6,P
1513498415.4,286046995.0,P
1513498435.2,286047001.0,N
1513498455.0,286047004.1,N
1513498455.9,286047004.1,N
1513498475.8,286047004.0,N
1513498495.6,286047002.5,N
1513498515.4,286047001.4,N
1513498535.3,286047003.4,N
1513498555.1,286047007.4,N
1513498575.8,286047005.6,N
1513498595.7,286047001.9,N
1513498615.5,286047001.5,N
1513498635.3,286046998.3,N
1513498655.2,286046999.4,N
1513498675.9,286046999.0,N
1513498695.7,286046998.7,N
1513498715.5,286046998.3,N
1513498735.4,286046997.9,N
1513498755.2,286046998.4,N
1513498775.0,286047000.3,N
1513498775.9,286047000.3,N
1513498795.8,286047006.0,N
1513498815.6,286047003.3,N
1513498835.4,286047006.0,N
1513498855.3,286047001.4,N
1513498875.1,286047006.0,N
1513498895.8,286047005.5,N
1513498915.7,286047004.2,N
1513498935.5,286047004.4,N
1513498955.3,286047002.3,N
1513498975.2,286046999.9,N
1513498995.9,286047006.0,N
1513499015.7,286047008.4,N
1513499035.6,286047012.2,Y
1513499055.4,286047006.5,P
1513499075.2,286047008.2,P
1513499095.1,286047007.5,P
1513499096.0,286047007.5,Y
1513499115.8,286046996.5,P
1513499135.6,286046998.8,N
1513499155.5,286046995.3,N
1513499175.3,286047002.0,N
1513499195.1,286047000.7,N
1513499215.8,286047000.1,N
1513499235.7,286047001.0,N
1513499255.5,286047001.6,N
1513499275.3,286046998.6,N
1513499295.2,286046999.2,N
1513499315.9,286046996.7,N
1513499335.7,286046997.6,N
1513499355.6,286046997.5,N
1513499375.4,286046996.5,N
1513499395.2,286046998.7,N
1513499415.1,286047000.8,N
1513499416.0,286047000.8,N
1513499435.8,286046998.8,N
1513499455.6,286046996.9,N
1513499475.4,286046997.9,N
1513499495.3,286046995.4,N
1513499515.1,286046997.4,N
1513499535.8,286047002.2,N
1513499555.7,286047001.4,N
1513499575.5,286047000.9,N
1513499595.3,286047004.3,N
1513499615.2,286046999.3,N
1513499635.9,286047000.8,N
1513499655.7,286046999.6,N
1513499675.6,286047001.2,N
1513499695.4,286046999.0,N
1513499715.2,286046998.8,N
1513499735.1,286046995.3,N
1513499736.0,286046995.3,N
1513499755.8,286046997.2,N
1513499775.6,286046997.1,N
1513499795.5,286046997.8,N
1513499815.3,286046997.2,N
1513499835.1,286046993.3,Y
1513499855.9,286046997.3,P
1513499875.7,286046998.8,N
1513499895.5,286046997.2,P
1513499915.4,286046997.4,Y
1513499935.2,286046995.7,P
1513499955.0,286046998.9,N
1513499955.9,286046998.9,N
1513499975.8,286046999.5,N
1513499995.6,286046995.0,Y
1513500015.4,286046997.7,P
1513500035.3,286046995.6,P
1513500055.1,286046997.5,N
1513500056.0,286046997.5,N
1513500075.8,286046996.2,Y
1513500095.7,286046996.7,P
1513500115.5,286046994.1,P
1513500135.3,286046990.8,P
1513500155.1,286046995.8,N
1513500175.9,286046991.8,Y
1513500195.7,286046999.7,P
1513500215.5,286047000.8,N
1513500235.4,286047000.9,N
1513500255.2,286046998.8,N
1513500275.0,286047002.4,N
1513500275.9,286047002.4,N
1513500295.8,286047002.7,N
1513500315.6,286047000.4,N
1513500335.4,286046996.8,N
1513500355.3,286046995.1,N
1513500375.1,286046996.9,N
1513500376.0,286046996.9,N
1513500395.8,286047001.0,N
1513500415.7,286046998.6,N
1513500435.5,286046999.6,N
1513500455.3,286046995.1,N
1513500475.2,286046994.7,N
1513500495.9,286046995.0,N
1513500515.7,286046993.4,N
1513500535.5,286046995.4,N
1513500555.4,286046999.5,N
1513500575.2,286046996.7,N
1513500595.0,286046995.6,N
1513500595.9,286046995.6,N
1513500615.8,286046995.8,N
1513500635.6,286046996.9,N
1513500655.4,286046996.9,N
1513500675.3,286046994.0,N
1513500695.1,286046993.6,N
1513500696.0,286046993.6,N
1513500715.8,286046997.5,N
1513500735.7,286046997.2,N
1513500755.5,286046996.5,N
1513500775.3,286046998.2,N
1513500795.2,286047001.8,N
1513500815.9,286047003.6,N
1513500835.7,286047001.8,N
1513500855.6,286047005.8,N
1513500875.4,286047009.7,Y
1513500895.2,286047009.3,P
1513500915.1,286047008.0,N
1513500916.0,286047008.0,N
1513500935.8,286047008.7,N
1513500955.6,286047003.8,N
1513500975.5,286047004.1,N
1513500995.3,286047003.8,N
1513501015.1,286047005.8,N
1513501035.8,286047004.0,N
1513501055.7,286047004.3,N
1513501075.5,286047002.0,N
1513501095.3,286047001.6,N
1513501115.2,286046999.0,N
1513501135.9,286046996.0,N
1513501155.7,286046994.4,N
1513501175.6,286046992.5,N
1513501195.4,286046990.2,N
